DW9429 Aranda de Duero ES current weather conditions

sailwx.info

Wind from 320

Air temperature 0.6° C
Dewpoint -2.0° C

Last reported at 2017-Dec-16 21:10 UTC.
Time now 2017-Dec-17 00:35 UTC

Location: N 41°46' W 003°41'.
View on Google Maps.

See reports from other nearby stations

  
Tides and Currents Weather Stations Pressure Air Temp Water Temp Dewpoint Dewpoint Depression Visibility Wind Speed Wind Dir Waves Ship Positions
date/time (UTC)wind fromknots sea level pressurealtimeterstation pressurevisibilityair tempwater tempwave heightnotes
2017-Dec-16 21:10 320 0.6
2017-Dec-16 21:01 315 0 gusting 2 0.6
2017-Dec-16 20:50 246 0 gusting 6 0.6
2017-Dec-16 20:40 0.6
2017-Dec-16 20:30 317 1 gusting 5 0.6
2017-Dec-16 20:20 350 0 gusting 5 0.6
2017-Dec-16 20:10 0.6
2017-Dec-16 20:00 336 0.6
2017-Dec-16 19:50 320 0.6
2017-Dec-16 19:40 315 1.1
2017-Dec-16 19:30 315 1.1
2017-Dec-16 19:20 1.7
2017-Dec-16 19:10 026 1 gusting 5 1.7
2017-Dec-16 17:59 346 1 gusting 5 2.2
2017-Dec-16 17:49 2.2
2017-Dec-16 17:39 275 0 gusting 4 2.2
2017-Dec-16 17:29 344 1 gusting 4 2.8
2017-Dec-16 17:09 030 0 gusting 2 3.3
2017-Dec-16 16:59 290 0 gusting 5 3.3
2017-Dec-16 16:39 315 1 gusting 6 3.3
2017-Dec-16 16:29 285 0 gusting 6 3.9
2017-Dec-16 16:19 315 1 gusting 6 3.9
2017-Dec-16 16:09 347 2 gusting 6 3.9
2017-Dec-16 15:59 283 0 gusting 6 3.9
2017-Dec-16 15:49 331 0 gusting 6 3.9
2017-Dec-16 15:39 340 1 gusting 6 3.9
2017-Dec-16 15:18 347 2 gusting 12 4.4
2017-Dec-16 15:08 315 2 gusting 7 5.6
2017-Dec-16 14:58 315 1 gusting 6 6.1
2017-Dec-16 14:48 315 2 gusting 5 6.7
2017-Dec-16 14:38 353 0 gusting 6 6.7
2017-Dec-16 14:29 315 2 gusting 7 6.1
2017-Dec-16 14:17 312 1 gusting 6 6.1
2017-Dec-16 14:08 312 1 gusting 6 6.7
2017-Dec-16 13:58 233 0 gusting 5 7.2
2017-Dec-16 13:48 321 1 gusting 6 7.2
2017-Dec-16 13:38 315 1 gusting 6 7.2
2017-Dec-16 13:29 315 1 gusting 7 7.2
2017-Dec-16 13:19 6.7
2017-Dec-16 13:09 315 2 gusting 11 6.7
2017-Dec-16 12:59 031 2 gusting 7 6.1
2017-Dec-16 12:49 345 2 gusting 8 5.6
2017-Dec-16 12:39 300 2 gusting 6 6.1
2017-Dec-16 12:29 314 2 gusting 6 6.1
2017-Dec-16 12:19 289 3 gusting 8 6.1
2017-Dec-16 12:09 312 2 gusting 8 6.1
2017-Dec-16 11:59 315 3 gusting 8 6.1
2017-Dec-16 11:49 287 1 gusting 8 6.1
2017-Dec-16 11:39 313 3 gusting 8 6.1
2017-Dec-16 11:19 263 0 gusting 5 5.0
2017-Dec-16 10:59 180 3.3
2017-Dec-16 10:49 182 0 gusting 4 3.3
2017-Dec-16 10:39 270 3.3
2017-Dec-16 10:29 225 2.8
2017-Dec-16 10:19 268 0 gusting 4 2.8
2017-Dec-16 10:09 270 2.2
2017-Dec-16 09:59 170 1.7
2017-Dec-16 09:49 343 1.1
2017-Dec-16 09:39 181 1.1
2017-Dec-16 09:29 233 0.6
2017-Dec-16 09:19 295 0 gusting 2 -0.0
2017-Dec-16 09:09 228 -0.6
2017-Dec-16 08:59 270 -0.6
2017-Dec-16 08:49 257 -1.1
2017-Dec-16 08:39 135 -1.7
2017-Dec-16 08:29 349 -2.2
2017-Dec-16 08:19 -2.8
2017-Dec-16 08:09 225 -2.8
2017-Dec-16 07:59 271 -3.3
2017-Dec-16 07:49 270 -3.3
2017-Dec-16 07:39 315 -3.3
2017-Dec-16 07:29 315 -2.8
2017-Dec-16 07:19 225 -2.8
2017-Dec-16 06:59 225 -2.8
2017-Dec-16 06:51 315 -2.2
2017-Dec-16 06:39 239 -2.2
2017-Dec-16 06:29 270 -2.8
2017-Dec-16 06:19 315 -3.3
2017-Dec-16 06:09 270 -3.3
2017-Dec-16 05:59 135 -3.3
2017-Dec-16 05:49 270 -3.3
2017-Dec-16 05:39 259 -3.3
2017-Dec-16 05:29 315 -3.3
2017-Dec-16 05:19 315 -3.3
2017-Dec-16 05:09 225 -3.3
2017-Dec-16 04:59 315 -3.3
2017-Dec-16 04:49 225 -2.8
2017-Dec-16 04:39 225 -2.2
2017-Dec-16 04:29 268 -2.2
2017-Dec-16 04:19 270 -2.2
2017-Dec-16 04:09 270 -2.2
2017-Dec-16 03:59 270 -1.7
2017-Dec-16 03:49 270 -1.7
2017-Dec-16 03:39 197 -1.7
2017-Dec-16 03:29 270 -2.2
2017-Dec-16 03:09 315 -2.2
2017-Dec-16 02:59 270 -2.2
2017-Dec-16 02:49 315 -2.2
2017-Dec-16 02:39 270 -2.2
2017-Dec-16 02:29 270 -2.2
2017-Dec-16 02:19 181 -2.2
2017-Dec-16 02:09 270 -2.2
2017-Dec-16 01:59 270 -2.2
2017-Dec-16 01:49 315 -2.2
2017-Dec-16 01:39 225 -1.7
2017-Dec-16 01:29 270 -1.7
2017-Dec-16 01:19 315 -1.7
2017-Dec-16 01:09 315 -1.7
2017-Dec-16 00:59 315 -2.2
2017-Dec-16 00:49 315 -2.2
2017-Dec-16 00:39 315 -2.2
2017-Dec-16 00:29 270 -2.2
2017-Dec-16 00:19 315 -1.7
2017-Dec-16 00:09 316 -1.7
2017-Dec-15 23:59 270 -1.7
2017-Dec-15 23:49 270 -1.1
2017-Dec-15 23:39 225 -1.1
2017-Dec-15 23:29 263 -1.1
2017-Dec-15 23:19 292 -1.1
2017-Dec-15 23:09 270 -1.1
2017-Dec-15 22:59 270 -1.1
2017-Dec-15 22:49 270 -1.1
2017-Dec-15 22:39 294 -0.6
2017-Dec-15 22:29 270 -0.0
2017-Dec-15 22:19 270 -0.0
2017-Dec-15 22:09 315 -0.6
2017-Dec-15 21:59 270 -0.6
2017-Dec-15 21:49 315 -0.6
2017-Dec-15 21:39 313 -0.6
2017-Dec-15 21:29 270 -1.1
2017-Dec-15 21:19 315 -1.1
2017-Dec-15 21:09 270 -0.6
2017-Dec-15 20:59 270 -0.6
2017-Dec-15 20:49 270 -0.6
2017-Dec-15 20:39 270 -0.6
2017-Dec-15 20:29 270 -0.6
2017-Dec-15 20:19 270 -0.6
2017-Dec-15 20:09 270 -0.6
2017-Dec-15 19:59 270 -0.0
2017-Dec-15 19:49 270 -0.0
2017-Dec-15 19:39 270 0.6
2017-Dec-15 19:19 254 0.6
2017-Dec-15 18:59 225 1.7
2017-Dec-15 18:49 193 1.7
2017-Dec-15 18:39 265 2.2
2017-Dec-15 18:29 293 2.2
2017-Dec-15 18:19 270 2.8
2017-Dec-15 18:09 276 0 gusting 2 2.8
2017-Dec-15 17:59 248 0 gusting 5 3.3
2017-Dec-15 17:50 315 0 gusting 5 3.3
2017-Dec-15 17:39 270 0 gusting 6 3.9
2017-Dec-15 17:29 315 1 gusting 6 3.9
2017-Dec-15 17:19 282 2 gusting 5 3.9
2017-Dec-15 17:10 315 0 gusting 6 3.9
2017-Dec-15 16:59 270 1 gusting 6 4.4
2017-Dec-15 16:49 301 1 gusting 5 4.4
2017-Dec-15 16:39 279 0 gusting 6 5.0
2017-Dec-15 16:29 273 1 gusting 5 5.0
2017-Dec-15 16:19 289 1 gusting 6 5.6
2017-Dec-15 16:09 315 3 gusting 6 5.6
2017-Dec-15 15:49 341 2 gusting 7 6.1
2017-Dec-15 15:39 333 1 gusting 7 6.1
2017-Dec-15 15:29 6.7
2017-Dec-15 15:19 288 2 gusting 8 7.2
2017-Dec-15 15:09 315 1 gusting 6 7.2
2017-Dec-15 14:59 315 2 gusting 6 7.2
2017-Dec-15 14:49 7.8
2017-Dec-15 14:39 272 3 gusting 13 7.2
2017-Dec-15 14:29 270 4 gusting 8 7.2
2017-Dec-15 14:19 267 4 gusting 11 7.2
2017-Dec-15 14:09 299 2 gusting 8 7.8
2017-Dec-15 13:59 315 2 gusting 10 8.3
2017-Dec-15 13:50 180 5 gusting 10 8.3
2017-Dec-15 13:29 270 2 gusting 10 8.3
2017-Dec-15 13:19 307 4 gusting 10 8.9
2017-Dec-15 13:09 310 1 gusting 6 8.9
2017-Dec-15 12:59 270 0 gusting 6 8.3
2017-Dec-15 12:49 288 2 gusting 6 8.3
2017-Dec-15 12:39 315 1 gusting 6 7.8
2017-Dec-15 12:29 300 0 gusting 5 7.2
2017-Dec-15 12:19 315 0 gusting 5 7.2
2017-Dec-15 12:09 298 0 gusting 6 6.7
2017-Dec-15 11:59 299 1 gusting 6 6.7
2017-Dec-15 11:49 311 2 gusting 6 6.7
2017-Dec-15 11:39 045 1 gusting 7 6.7
2017-Dec-15 11:29 349 2 gusting 6 6.7
2017-Dec-15 11:19 270 2 gusting 6 6.7
2017-Dec-15 11:09 315 2 gusting 6 7.2
2017-Dec-15 10:59 270 2 gusting 8 7.2
2017-Dec-15 10:49 289 2 gusting 8 7.2
2017-Dec-15 10:39 315 4 gusting 13 7.2
2017-Dec-15 10:29 290 2 gusting 8 7.2
2017-Dec-15 10:19 300 4 gusting 10 7.2
2017-Dec-15 10:09 255 1 gusting 6 6.7
2017-Dec-15 09:59 315 2 gusting 8 6.7
2017-Dec-15 09:39 263 1 gusting 6 6.1
2017-Dec-15 09:29 270 2 gusting 8 6.1
2017-Dec-15 09:19 225 2 gusting 8 6.1
2017-Dec-15 09:09 296 0 gusting 5 6.1
2017-Dec-15 08:59 270 1 gusting 6 6.1
2017-Dec-15 08:49 225 1 gusting 6 6.1
2017-Dec-15 08:29 315 3 gusting 11 5.6
2017-Dec-15 08:17 299 1 gusting 6 5.0
2017-Dec-15 07:30 207 1 gusting 6 4.4
2017-Dec-15 06:50 315 0 gusting 6 4.4
2017-Dec-15 06:10 270 0 gusting 6 4.4
2017-Dec-15 05:50 270 0 gusting 6 3.9
2017-Dec-15 05:40 270 0 gusting 6 3.9
2017-Dec-15 05:30 270 0 gusting 2 3.9
2017-Dec-15 05:17 270 0 gusting 6 3.9
2017-Dec-15 04:49 224 1 gusting 6 3.9
2017-Dec-15 04:39 308 0 gusting 6 3.9
2017-Dec-15 04:29 261 1 gusting 6 3.9
2017-Dec-15 04:19 258 1 gusting 6 3.9
2017-Dec-15 04:09 215 1 gusting 6 3.9
2017-Dec-15 03:49 258 0 gusting 6 4.4
2017-Dec-15 03:39 298 0 gusting 6 4.4
2017-Dec-15 03:29 312 1 gusting 8 5.0
2017-Dec-15 03:19 315 1 gusting 10 5.0
2017-Dec-15 02:59 255 0 gusting 8 5.0
2017-Dec-15 02:49 253 2 gusting 8 5.0
2017-Dec-15 02:39 332 2 gusting 6 5.0
2017-Dec-15 02:29 277 0 gusting 6 5.0
2017-Dec-15 02:19 210 5.6
2017-Dec-15 02:09 212 1 gusting 4 5.6
2017-Dec-15 01:59 315 0 gusting 6 5.6
2017-Dec-15 01:49 304 2 gusting 7 6.1
2017-Dec-15 01:39 276 0 gusting 8 6.1
2017-Dec-15 01:29 270 0 gusting 6 6.7
2017-Dec-15 01:19 330 1 gusting 11 6.7
2017-Dec-15 01:09 270 4 gusting 11 7.8
2017-Dec-15 00:59 312 0 gusting 8 7.8
2017-Dec-15 00:49 308 2 gusting 10 7.8
2017-Dec-15 00:39 315 4 gusting 11 8.3
2017-Dec-15 00:29 315 1 gusting 8 8.3
2017-Dec-15 00:19 261 2 gusting 11 8.3